Погода в Карчаге

Россия / Республика Дагестан     41°46′29″N   48°09′34″E
темп.,
°C
ветер,
м/с
пор.,
м/с
влажн.,
%
обл.,
%
осадки,
мм/ч
давл.,
гПа
погр.,
м
26 февраля, пт
пт2600:00−3з116461 0.0 103021
03:00−1зсз115680 0.0 102821
06:00−1юз125384 0.0 102821
09:00+3ююз234791 0.0 1027116
12:00+6ююв3432100 0.0 1026708
15:00+7ююз1145100 0.0 1024298
18:00+2ююз115574 0.0 102522
21:00+2юз225983 0.0 102525
27 февраля, сб
сб2700:00+2юз1257100 0.0 102423
03:00+2з115499 0.0 102322
06:00+2з225378 0.0 102322
09:00+7ююз154744 0.0 1022331
12:00+9вюв34560 0.0 10201017
15:00+8св33612 0.0 1017766
18:00+4сз22810 0.0 101736
21:00+4зсз22760 0.0 101724
28 февраля, вс
вс2800:00+3зюз22710 0.0 101623
03:00+3зюз22680 0.0 101524
06:00+3зюз33600 0.0 101525
09:00+9зюз12460 0.0 1015112
12:00+12всв43430 0.0 1014897
15:00+9всв32591 0.0 1013615
18:00+5ссв128257 0.0 101472
21:00+4ссв119066 0.0 101624
1 марта, пн
пн100:00+4св119399 0.0 1017107
03:00+4в119698 0.0 101890
06:00+4ссв2398100 1.1 1019201
09:00+2с4698100 3.8 1021337
12:00+2с4696100 1.6 1022368
15:00+2ссв2396100 2.4 1023242
18:00+2ююв1196100 0.4 1025120
21:00+2ююз1291100 0.4 1027112
2 марта, вт
вт200:000юв018891 0.0 102822
03:00+1ююв118894 0.0 102885
06:00+1юз1296100 0.1 1029123
09:00+2юв118299 0.2 1030393
12:00+4вюв347697 0.2 1029679
15:00+3в348899 0.6 1028404
18:00+2вюв3486100 0.3 1028396
21:00+1юв239292 0.3 102897